OBJECT CN, 62693

Orbit data source: Space-Track

You're viewing an Uncataloged Satellite

Recently launched and/or uncataloged satellites may have evolving metadata. Metadata may include but not limited to: Owner, Maufacturer, Bus, Motor, and Mission.

OBJECT CN, 62693 is a satellite in SSO that was launched on Tue, 14 Jan 2025 UTC via an FALCON 9 launch vehicle from the Air Force Western Test Range (AFWTR). Unknown objects in Earth's orbit typically refer to objects detected orbiting the Earth but have not yet been identified or cataloged. These objects could be anything from previously untracked satellites, spent rocket stages, debris from satellite collisions, or even natural meteoroids temporarily captured by Earth's gravity.

Not visible in the next 10 days
Identifier
62693, 2025-009CN
Orbit
SSO
Country
Flag of TBDTBD
Related business
None
Manufacturer
Unknown
Mission
Operational Commercial Communications
Bus & Motor
Unknown
Mass
Unknown
Launch date (UTC)
2025-01-14 (1 year ago)
Launch vehicle
FALCON 9
Launch site
Air Force Western Test Range (AFWTR)
Object type
Unknown
Shape & HBR
Box + 2 Pan, 0.1 m
Radar Cross Section
0.014 m², Small (<0.1 m²)

Expand to show TLE details & history
Last TLE update: 3 days ago

TLE from 3 days ago
0 OBJECT CN
1 62693U 25009CN  26032.46717544  .00085601  00000-0  13831-2 0  9991
2 62693  97.4194 120.9340 0001940 309.3180  50.7901 15.52566512116164
Epoch: 2026-02-01T11:12Z
TLE epoch observation values (Epoch: 2026-02-01T11:12:43.958Z)
Latitude
0.00006°
Longitude
-178.92556°
Altitude
411.537 km
Speed
7.664 km/s
True Right ascension
08h 03m 44s
True Declination
0° 00' 00"
Sunlit
Object was in full shadow at epoch
Visualization orbit readout
Latitude
Unknown
Longitude
Unknown
Altitude
Unknown
Speed
Unknown
Apparent Right ascension
Unknown
Apparent Declination
Unknown
Sunlit
N/A
Visualization observer readout
Local Sidereal Time
01:00:07
Azimuth
Unknown
Elevation
Unknown
Doppler factor
Unknown
Orbital elements
Apogee altitude
407.475 km
Perigee altitude
404.843 km
Semi-major axis
6,784.296 km
Eccentricity
0.00019
Inclination
97.4194°
RAAN
120.934°
Arg. of periapsis
309.318°
True anomaly
50.80733°
Mean anomaly
50.7901°
Eccentric anomaly
50.79871°
Mean motion
3.88406 °/min
Orbital period
92.69 mins
BSTAR
0.0013831
Loading maneuver chart data...
Computing Atmospheric mass density...
Loading historical data...
Loading historical data...
Loading historical data...
Loading historical data...
Loading historical data...
Loading historical data...
Loading historical data...

Documentation

Showing up to 5 results
|